Weather History for Clinton, OK

Change the Weather History Date:

Sunday, June 1, 2014

  Actual Average (KCSM) Record (KCSM)
Temperature  
Mean Temperature 78 °F -  
Max Temperature 89 °F 83 °F 100 °F (1998)
Min Temperature 66 °F 60 °F 57 °F (1997)
Cooling Degree Days 12    
Growing Degree Days 28 (Base 50)    
Moisture  
Dew Point 61 °F    
Average Humidity 60    
Maximum Humidity 94    
Minimum Humidity 31    
Precipitation  
Precipitation 0.00 in - - ()
Sea Level Pressure  
Sea Level Pressure 29.89 in    
Wind  
Wind Speed 12 mph (SSE)    
Max Wind Speed 24 mph    
Max Gust Speed 32 mph    
Visibility 9 miles    
Events      
Averages and records for this station are not official NWS values.
T = Trace of Precipitation, MM = Missing Value Source: NWS Daily Summary

Daily Weather History Graph

Daily Weather History Graph

Search for Another Location

Airport:

Trip Planner

Search our weather history database for the weather conditions in past years. The results will help you decide how hot, cold, wet, or windy it might be!

Date:

Astronomy

Jun. 01, 2014 Rise Set
Actual Time 6:21 AM CDT 8:45 PM CDT
Civil Twilight 5:52 AM CDT 9:15 PM CDT
Nautical Twilight 5:15 AM CDT 9:51 PM CDT
Astronomical Twilight 4:36 AM CDT 10:31 PM CDT
Moon 9:51 AM CDT (6/1) 11:46 PM CDT (6/1)
Length of Visible Light 15h 23m
Length of Day
14h 24m
Waxing Crescent, 14% of the Moon is Illuminated
Jun 1
Waxing Crescent
Jun 5
First Quarter
Jun 12
Full
Jun 19
Last Quarter
Jun 27
New

Hourly Weather History & Observations

Time (CDT) Temp. Heat Index Dew Point Humidity Pressure Visibility Wind Dir Wind Speed Gust Speed Precip Events Conditions
12:15 AM 71.6 °F - 60.8 °F 69% 29.96 in 10.0 mi SE 6.9 mph - N/A   Clear
12:35 AM 71.6 °F - 60.8 °F 69% 29.96 in 10.0 mi SE 9.2 mph - N/A   Clear
1:15 AM 69.8 °F - 60.8 °F 73% 29.96 in 10.0 mi SE 8.1 mph - N/A   Clear
1:35 AM 69.8 °F - 60.8 °F 73% 29.96 in 10.0 mi SE 9.2 mph - N/A   Clear
1:55 AM 69.8 °F - 60.8 °F 73% 29.96 in 10.0 mi SE 9.2 mph - N/A   Clear
2:15 AM 69.8 °F - 60.8 °F 73% 29.96 in 10.0 mi SE 11.5 mph - N/A   Clear
2:35 AM 69.8 °F - 62.6 °F 78% 29.95 in 10.0 mi SSE 11.5 mph - N/A   Clear
3:15 AM 68.0 °F - 62.6 °F 83% 29.96 in 10.0 mi SSE 9.2 mph - N/A   Clear
3:35 AM 68.0 °F - 62.6 °F 83% 29.96 in 10.0 mi SSE 6.9 mph - N/A   Clear
4:15 AM 66.2 °F - 62.6 °F 88% 29.95 in 10.0 mi SE 6.9 mph - N/A   Clear
4:35 AM 68.0 °F - 62.6 °F 83% 29.95 in 10.0 mi SE 6.9 mph - N/A   Clear
4:55 AM 66.2 °F - 62.6 °F 88% 29.96 in 10.0 mi SE 5.8 mph - N/A   Clear
5:15 AM 66.2 °F - 62.6 °F 88% 29.97 in 10.0 mi SE 5.8 mph - N/A   Clear
5:35 AM 66.2 °F - 62.6 °F 88% 29.97 in 7.0 mi SE 5.8 mph - N/A   Clear
5:55 AM 66.2 °F - 62.6 °F 88% 29.97 in 7.0 mi SE 5.8 mph - N/A   Scattered Clouds
6:15 AM 66.2 °F - 62.6 °F 88% 29.99 in 7.0 mi SE 4.6 mph - N/A   Scattered Clouds
6:35 AM 66.2 °F - 62.6 °F 88% 30.00 in 7.0 mi East 3.5 mph - N/A   Clear
7:15 AM 66.2 °F - 64.4 °F 94% 29.99 in 5.0 mi SE 5.8 mph - N/A   Clear
7:35 AM 68.0 °F - 64.4 °F 88% 30.00 in 4.0 mi SE 3.5 mph - N/A   Clear
7:55 AM 68.0 °F - 64.4 °F 88% 29.98 in 4.0 mi South 9.2 mph - N/A   Clear
8:15 AM 68.0 °F - 64.4 °F 88% 29.97 in 3.0 mi South 10.4 mph - N/A   Clear
8:35 AM 68.0 °F - 64.4 °F 88% 29.93 in 3.0 mi South 15.0 mph - N/A   Scattered Clouds
8:55 AM 68.0 °F - 64.4 °F 88% 29.91 in 2.5 mi South 18.4 mph - N/A   Overcast
9:15 AM 69.8 °F - 66.2 °F 88% 29.94 in 3.0 mi South 11.5 mph - N/A   Overcast
9:35 AM 71.6 °F - 64.4 °F 78% 29.96 in 5.0 mi South 13.8 mph 18.4 mph N/A   Haze
10:15 AM 73.4 °F - 64.4 °F 73% 29.96 in 7.0 mi South 11.5 mph - N/A   Scattered Clouds
10:35 AM 75.2 °F - 64.4 °F 69% 29.96 in 10.0 mi South 11.5 mph - N/A   Scattered Clouds
10:55 AM 77.0 °F - 64.4 °F 65% 29.96 in 10.0 mi South 13.8 mph 18.4 mph N/A   Scattered Clouds
11:15 AM 78.8 °F - 64.4 °F 61% 29.95 in 10.0 mi South 13.8 mph - N/A   Scattered Clouds
11:35 AM 78.8 °F - 64.4 °F 61% 29.95 in 10.0 mi South 13.8 mph 18.4 mph N/A   Scattered Clouds
11:55 AM 80.6 °F 81.8 °F 62.6 °F 54% 29.95 in 10.0 mi South 17.3 mph 20.7 mph N/A   Scattered Clouds
12:15 PM 82.4 °F 83.4 °F 62.6 °F 51% 29.94 in 10.0 mi South 17.3 mph 21.9 mph N/A   Scattered Clouds
12:35 PM 82.4 °F 83.4 °F 62.6 °F 51% 29.94 in 10.0 mi South 18.4 mph 24.2 mph N/A   Scattered Clouds
1:15 PM 82.4 °F 82.9 °F 60.8 °F 48% 29.92 in 10.0 mi South 18.4 mph 25.3 mph N/A   Scattered Clouds
1:35 PM 84.2 °F 84.4 °F 60.8 °F 45% 29.91 in 10.0 mi SSE 20.7 mph 27.6 mph N/A   Scattered Clouds
1:55 PM 86.0 °F 86.1 °F 60.8 °F 43% 29.90 in 10.0 mi SSE 18.4 mph 26.5 mph N/A   Clear
2:15 PM 86.0 °F 86.1 °F 60.8 °F 43% 29.89 in 10.0 mi SSE 19.6 mph 25.3 mph N/A   Clear
2:55 PM 87.8 °F 87.1 °F 59.0 °F 38% 29.88 in 10.0 mi SSE 21.9 mph 28.8 mph N/A   Clear
3:15 PM 87.8 °F 87.6 °F 60.8 °F 40% 29.86 in 10.0 mi SSE 23.0 mph 29.9 mph N/A   Clear
3:35 PM 87.8 °F 87.1 °F 59.0 °F 38% 29.86 in 10.0 mi SSE 20.7 mph 29.9 mph N/A   Clear
3:55 PM 87.8 °F 87.1 °F 59.0 °F 38% 29.85 in 10.0 mi SSE 20.7 mph 31.1 mph N/A   Clear
4:15 PM 87.8 °F 87.1 °F 59.0 °F 38% 29.84 in 10.0 mi SSE 20.7 mph 32.2 mph N/A   Clear
4:35 PM 87.8 °F 87.1 °F 59.0 °F 38% 29.83 in 10.0 mi SSE 23.0 mph 28.8 mph N/A   Clear
5:15 PM 89.6 °F 88.1 °F 57.2 °F 33% 29.81 in 10.0 mi South 21.9 mph 28.8 mph N/A   Clear
5:35 PM 89.6 °F 88.1 °F 57.2 °F 33% 29.80 in 10.0 mi South 19.6 mph 27.6 mph N/A   Clear
5:55 PM 89.6 °F 88.1 °F 57.2 °F 33% 29.79 in 10.0 mi South 21.9 mph 31.1 mph N/A   Clear
6:15 PM 89.6 °F 88.1 °F 57.2 °F 33% 29.79 in 10.0 mi SSE 21.9 mph 27.6 mph N/A   Clear
6:35 PM 89.6 °F 87.7 °F 55.4 °F 31% 29.78 in 10.0 mi South 23.0 mph 26.5 mph N/A   Clear
6:55 PM 89.6 °F 87.7 °F 55.4 °F 31% 29.78 in 10.0 mi South 21.9 mph 26.5 mph N/A   Clear
7:15 PM 87.8 °F 86.5 °F 57.2 °F 35% 29.77 in 10.0 mi South 18.4 mph 27.6 mph N/A   Clear
7:35 PM 87.8 °F 86.5 °F 57.2 °F 35% 29.77 in 10.0 mi South 18.4 mph 26.5 mph N/A   Clear
7:55 PM 87.8 °F 86.5 °F 57.2 °F 35% 29.76 in 10.0 mi South 17.3 mph 24.2 mph N/A   Clear
8:15 PM 86.0 °F 85.4 °F 59.0 °F 40% 29.76 in 10.0 mi SSE 15.0 mph 19.6 mph N/A   Clear
8:35 PM 84.2 °F 83.8 °F 59.0 °F 42% 29.75 in 10.0 mi SSE 16.1 mph 20.7 mph N/A   Clear
8:55 PM 82.4 °F 82.5 °F 59.0 °F 45% 29.74 in 10.0 mi SSE 16.1 mph - N/A   Clear
9:15 PM 82.4 °F 82.5 °F 59.0 °F 45% 29.74 in 10.0 mi SSE 17.3 mph 23.0 mph N/A   Clear
9:35 PM 82.4 °F 82.5 °F 59.0 °F 45% 29.74 in 10.0 mi SSE 17.3 mph 25.3 mph N/A   Clear
9:55 PM 80.6 °F 81.1 °F 59.0 °F 48% 29.75 in 10.0 mi SSE 18.4 mph 25.3 mph N/A   Clear
10:15 PM 80.6 °F 81.1 °F 59.0 °F 48% 29.77 in 10.0 mi SSE 20.7 mph 24.2 mph N/A   Clear
10:55 PM 78.8 °F - 59.0 °F 51% 29.78 in 10.0 mi SSE 18.4 mph 23.0 mph N/A   Clear
11:15 PM 78.8 °F - 59.0 °F 51% 29.77 in 10.0 mi SSE 19.6 mph 24.2 mph N/A   Clear
11:35 PM 78.8 °F - 59.0 °F 51% 29.77 in 10.0 mi SSE 20.7 mph 27.6 mph N/A   Clear
11:55 PM 78.8 °F - 59.0 °F 51% 29.77 in 10.0 mi South 24.2 mph 29.9 mph N/A   Clear